Regional Weather Roundup
Issued by NWS

Home | Current Version | Previous Version | Text Only | Print | Product List | Glossary On
Versions: 1 2 3 4 5 6 7 8 9 10 11 12 13 14 15 16 17 18 19 20 21 22 23 24 25 26 27 28 29 30 31 32 33 34 35 36 37 38 39 40 41 42 43 44 45 46 47 48 49 50
000
ASUS44 KBMX 312010
RWRAL

ALABAMA REGIONAL WEATHER ROUNDUP
NATIONAL WEATHER SERVICE BIRMINGHAM AL
200 PM CST SAT JAN 31 2015

NOTE: "FAIR" INDICATES FEW OR NO CLOUDS BELOW 12,000 FEET
WITH NO SIGNIFICANT WEATHER AND/OR OBSTRUCTIONS TO VISIBILITY.

THE REMARK "TC" DENOTES TEMPERATURE IN DEGREES CELSIUS.

ALZ001>011-014-016>018-020-312100-
NORTH ALABAMA

CITY           SKY/WX    TMP DP  RH WIND       PRES   REMARKS
MUSCLE SHOALS  CLOUDY    51  18  27 E6        30.29F
HUNTSVILLE     PTSUNNY   53  13  20 E5        30.28F
DECATUR        PTSUNNY   51  15  23 NE6       30.30F
HALEYVILLE       N/A     55  11  17 CALM      30.28F
GADSDEN        MOSUNNY  N/A N/A N/A N3        30.29F
$$

ALZ012-013-022-023-030>036-040>044-312100-
WEST CENTRAL ALABAMA

CITY           SKY/WX    TMP DP  RH WIND       PRES   REMARKS
TUSCALOOSA     SUNNY     60  15  17 SE8       30.28F
$$

ALZ015-024>027-033>036-040>044-312100-
CENTRAL ALABAMA

CITY           SKY/WX    TMP DP  RH WIND       PRES   REMARKS
BIRMINGHAM     PTSUNNY   58  12  16 CALM      30.29F
MONTGOMERY     MOSUNNY   58  22  24 S5        30.29F
SHELBY CO ARPT SUNNY     58  16  19 VRB3      30.27F
MAXWELL AFB    MOSUNNY   58  21  23 VRB2      30.28F
GREENVILLE     FAIR      64  20  18 VRB6      30.25F
$$

ALZ019-021-028-029-037-038-045>048-312100-
EAST CENTRAL ALABAMA

CITY           SKY/WX    TMP DP  RH WIND       PRES   REMARKS
ANNISTON       MOSUNNY   58  12  16 CALM      30.28F
ALEXANDER CITY SUNNY     59   4  11 CALM      30.28F
AUBURN         SUNNY     55  16  21 S3        30.31F
$$

ALZ051>064-312100-
SOUTHWEST ALABAMA

CITY           SKY/WX    TMP DP  RH WIND       PRES   REMARKS
MOBILE         PTSUNNY   60  23  24 E7        30.26F
BROOKLEY FIELD MOSUNNY   59  30  33 SE5       30.27F
EVERGREEN      MOSUNNY   62  25  24 E6        30.26F
$$

ALZ049-050-065>069-312100-
SOUTHEAST ALABAMA

CITY           SKY/WX    TMP DP  RH WIND       PRES   REMARKS
DOTHAN         SUNNY     59  26  28 E7        30.31F
OZARK          SUNNY     61  24  24 E6        30.27F
TROY           SUNNY     61  19  19 VRB3      30.28F
EUFAULA        FAIR      62  23  22 E7        30.28F
$$


USA.gov is the U.S. government's official web portal to all federal, state and local government web resources and services.